Flag for Canada Weather past 2 weeks in Shawinigan, Quebec, Canada

Now
64 °F

Mild.


Feels Like: 64 °F
Forecast: 59 / 78 °F
Wind: 8 mph from Southwest

Location: Trois Rivieres

Current Time: Jul 5, 2015 at 6:13:49 AM

Latest Report: Jul 5, 2015 at 5:00 AM


Visibility: N/A

Pressure: 29.92 "Hg

Humidity: 96%

Dew point: 63 °F

Location of ShawiniganLocation

Historic Weather in Shawinigan — Graph

°F

Shawinigan temperature yesterday

Maximum temperature yesterday: 72 °F (at 5:00 PM)
Minimum temperature yesterday: 59 °F (at 6:00 AM)
Average temperature yesterday: 66 °F

Past Weeks' High & Low Weather Summary

 TemperatureHumidityPressure
High77 °F (Jul 3, 2:00 PM)100% (Jul 1, 5:00 AM)30.17 "Hg (Jul 1, 5:00 AM)
Low49 °F (Jun 20, 5:00 AM)25% (Jun 25, 6:00 PM)29.48 "Hg (Jun 23, 5:00 PM)
Average65 °F73%29.86 "Hg
* Reported Jun 20 5:00 AM — Jul 5 5:00 AM, Shawinigan, Weather by CustomWeather, © 2015

Note: Actual official high and low records may vary slightly from our data, if they occured in-between our weather recording intervals... More about our weather records

Advertising

Shawinigan weather history for previous 24 hours

 ConditionsComfort  
Time TempWeatherWind HumidityBarometerVisibility
5:00 AM
Sun, Jul 5
64 °FMild.8 mph96%29.92 "HgN/A
4:00 AM65 °FMild.8 mph95%29.92 "HgN/A
3:00 AM65 °FMild.8 mph93%29.91 "HgN/A
2:00 AM66 °FMild.8 mph90%29.91 "HgN/A
1:00 AM66 °FMild.13 mph90%29.90 "HgN/A
12:00 AM67 °FMild.14 mph86%29.89 "HgN/A
11:00 PM
Sat, Jul 4
67 °FMild.8 mph85%29.89 "HgN/A
10:00 PM68 °FMild.1 mph77%29.88 "HgN/A
9:00 PM69 °FMild.2 mph78%29.87 "HgN/A
8:00 PM71 °FMild.2 mph65%29.87 "HgN/A
7:00 PM71 °FMild.3 mph64%29.87 "HgN/A
6:00 PM70 °FMild.7 mph72%29.87 "HgN/A
5:00 PM72 °FMild.7 mph60%29.88 "HgN/A
4:00 PM71 °FMild.8 mph60%29.88 "HgN/A
3:00 PM72 °FMild.8 mph63%29.88 "HgN/A
2:00 PM72 °FMild.5 mph51%29.89 "HgN/A
1:00 PM70 °FMild.3 mph63%29.90 "HgN/A
12:00 PM68 °FMild.2 mph71%29.92 "HgN/A
11:00 AM66 °FMild.2 mph68%29.93 "HgN/A
10:00 AM65 °FMild.9 mph70%29.94 "HgN/A
9:00 AM62 °FCool.7 mph81%29.93 "HgN/A
8:00 AM61 °FCool.6 mph74%29.93 "HgN/A
7:00 AM60 °FCool.7 mph80%29.93 "HgN/A
6:00 AM59 °FCool.7 mph85%29.93 "HgN/A
Weather by CustomWeather, © 2015

See weather overviewHow to use our weather pages